Time,TemperatureF,DewpointF,PressureIn,WindDirection,WindDirectionDegrees,WindSpeedMPH,WindSpeedGustMPH,Humidity,HourlyPrecipIn,Conditions,Clouds,dailyrainin,SoftwareType,DateUTC
2013-02-26 00:02:00,41.0,-99.9,30.41,ESE,103,7.0,8.0,-999,-99.99,,,-99.99,,2013-02-26 08:02:00,
2013-02-26 00:11:00,40.0,-99.9,30.41,East,101,7.0,9.0,-999,-99.99,,,-99.99,,2013-02-26 08:11:00,
2013-02-26 00:21:00,41.0,-99.9,30.41,ESE,110,6.0,7.0,-999,-99.99,,,-99.99,,2013-02-26 08:21:00,
2013-02-26 00:32:00,40.0,-99.9,30.41,ESE,103,5.0,6.0,-999,-99.99,,,-99.99,,2013-02-26 08:32:00,
2013-02-26 00:42:00,40.0,-99.9,30.40,ESE,106,5.0,6.0,-999,-99.99,,,-99.99,,2013-02-26 08:42:00,
2013-02-26 00:52:00,40.0,-99.9,30.40,ESE,103,6.0,6.0,-999,-99.99,,,-99.99,,2013-02-26 08:52:00,
2013-02-26 01:02:00,40.0,-99.9,30.39,ESE,103,9.0,9.0,-999,-99.99,,,-99.99,,2013-02-26 09:02:00,
2013-02-26 01:11:00,40.0,-99.9,30.40,ESE,107,7.0,8.0,-999,-99.99,,,-99.99,,2013-02-26 09:11:00,
2013-02-26 01:21:00,40.0,-99.9,30.40,East,96,5.0,8.0,-999,-99.99,,,-99.99,,2013-02-26 09:21:00,
2013-02-26 01:32:00,40.0,-99.9,30.40,East,101,6.0,8.0,-999,-99.99,,,-99.99,,2013-02-26 09:32:00,
2013-02-26 01:43:00,40.0,-99.9,30.40,ESE,107,6.0,7.0,-999,-99.99,,,-99.99,,2013-02-26 09:43:00,
2013-02-26 01:52:00,39.0,-99.9,30.40,ESE,102,6.0,7.0,-999,-99.99,,,-99.99,,2013-02-26 09:52:00,
2013-02-26 02:01:00,39.0,-99.9,30.40,East,100,7.0,8.0,-999,-99.99,,,-99.99,,2013-02-26 10:01:00,
2013-02-26 02:11:00,39.0,-99.9,30.40,ESE,106,8.0,9.0,-999,-99.99,,,-99.99,,2013-02-26 10:11:00,
2013-02-26 02:21:00,38.0,-99.9,30.40,ESE,106,8.0,9.0,-999,-99.99,,,-99.99,,2013-02-26 10:21:00,
2013-02-26 02:32:00,38.0,-99.9,30.39,East,101,9.0,10.0,-999,-99.99,,,-99.99,,2013-02-26 10:32:00,
2013-02-26 02:42:00,38.0,-99.9,30.39,East,97,7.0,10.0,-999,-99.99,,,-99.99,,2013-02-26 10:42:00,
2013-02-26 02:52:00,38.0,-99.9,30.39,ESE,104,8.0,9.0,-999,-99.99,,,-99.99,,2013-02-26 10:52:00,
2013-02-26 03:01:00,38.0,-99.9,30.39,ESE,102,8.0,8.0,-999,-99.99,,,-99.99,,2013-02-26 11:01:00,
2013-02-26 03:12:00,38.0,-99.9,30.38,ESE,106,8.0,9.0,-999,-99.99,,,-99.99,,2013-02-26 11:12:00,
2013-02-26 03:22:00,38.0,-99.9,30.38,ESE,106,10.0,10.0,-999,-99.99,,,-99.99,,2013-02-26 11:22:00,
2013-02-26 03:32:00,38.0,-99.9,30.38,ESE,107,8.0,10.0,-999,-99.99,,,-99.99,,2013-02-26 11:32:00,
2013-02-26 03:42:00,38.0,-99.9,30.38,ESE,113,8.0,9.0,-999,-99.99,,,-99.99,,2013-02-26 11:42:00,
2013-02-26 03:53:00,38.0,-99.9,30.38,ESE,111,7.0,8.0,-999,-99.99,,,-99.99,,2013-02-26 11:53:00,
2013-02-26 04:02:00,39.0,-99.9,30.38,ESE,114,6.0,7.0,-999,-99.99,,,-99.99,,2013-02-26 12:02:00,
2013-02-26 04:11:00,38.0,-99.9,30.39,ESE,113,5.0,8.0,-999,-99.99,,,-99.99,,2013-02-26 12:11:00,
2013-02-26 04:22:00,39.0,-99.9,30.38,ESE,118,7.0,8.0,-999,-99.99,,,-99.99,,2013-02-26 12:22:00,
2013-02-26 04:32:00,38.0,-99.9,30.39,ESE,104,7.0,8.0,-999,-99.99,,,-99.99,,2013-02-26 12:32:00,
2013-02-26 04:42:00,38.0,-99.9,30.38,ESE,122,8.0,9.0,-999,-99.99,,,-99.99,,2013-02-26 12:42:00,
2013-02-26 04:53:00,38.0,-99.9,30.38,ESE,113,9.0,10.0,-999,-99.99,,,-99.99,,2013-02-26 12:53:00,
2013-02-26 05:02:00,38.0,-99.9,30.38,ESE,116,10.0,11.0,-999,-99.99,,,-99.99,,2013-02-26 13:02:00,
2013-02-26 05:11:00,38.0,-99.9,30.38,ESE,115,10.0,11.0,-999,-99.99,,,-99.99,,2013-02-26 13:11:00,
2013-02-26 05:22:00,38.0,-99.9,30.38,ESE,118,9.0,10.0,-999,-99.99,,,-99.99,,2013-02-26 13:22:00,
2013-02-26 05:32:00,37.0,-99.9,30.38,ESE,105,8.0,9.0,-999,-99.99,,,-99.99,,2013-02-26 13:32:00,
2013-02-26 05:42:00,38.0,-99.9,30.38,ESE,117,10.0,10.0,-999,-99.99,,,-99.99,,2013-02-26 13:42:00,
2013-02-26 05:52:00,37.0,-99.9,30.39,ESE,104,9.0,9.0,-999,-99.99,,,-99.99,,2013-02-26 13:52:00,
2013-02-26 06:02:00,37.0,-99.9,30.39,ESE,118,9.0,10.0,-999,-99.99,,,-99.99,,2013-02-26 14:02:00,
2013-02-26 06:11:00,37.0,-99.9,30.38,ESE,106,9.0,10.0,-999,-99.99,,,-99.99,,2013-02-26 14:11:00,
2013-02-26 06:22:00,37.0,-99.9,30.38,ESE,106,10.0,11.0,-999,-99.99,,,-99.99,,2013-02-26 14:22:00,
2013-02-26 06:32:00,37.0,-99.9,30.39,ESE,107,9.0,11.0,-999,-99.99,,,-99.99,,2013-02-26 14:32:00,
2013-02-26 06:42:00,37.0,-99.9,30.39,ESE,109,9.0,10.0,-999,-99.99,,,-99.99,,2013-02-26 14:42:00,
2013-02-26 06:52:00,37.0,-99.9,30.38,ESE,109,7.0,9.0,-999,-99.99,,,-99.99,,2013-02-26 14:52:00,
2013-02-26 07:02:00,37.0,-99.9,30.38,ESE,109,9.0,10.0,-999,-99.99,,,-99.99,,2013-02-26 15:02:00,
2013-02-26 07:12:00,37.0,-99.9,30.37,ESE,116,9.0,11.0,-999,-99.99,,,-99.99,,2013-02-26 15:12:00,
2013-02-26 07:22:00,37.0,-99.9,30.37,ESE,113,10.0,11.0,-999,-99.99,,,-99.99,,2013-02-26 15:22:00,
2013-02-26 07:32:00,37.0,-99.9,30.36,ESE,110,12.0,13.0,-999,-99.99,,,-99.99,,2013-02-26 15:32:00,
2013-02-26 07:42:00,37.0,-99.9,30.36,ESE,108,12.0,13.0,-999,-99.99,,,-99.99,,2013-02-26 15:42:00,
2013-02-26 07:52:00,36.0,-99.9,30.36,ESE,108,9.0,10.0,-999,-99.99,,,-99.99,,2013-02-26 15:52:00,
2013-02-26 08:02:00,37.0,-99.9,30.36,ESE,109,9.0,10.0,-999,-99.99,,,-99.99,,2013-02-26 16:02:00,
2013-02-26 08:11:00,37.0,-99.9,30.36,ESE,112,7.0,8.0,-999,-99.99,,,-99.99,,2013-02-26 16:11:00,
2013-02-26 08:22:00,37.0,-99.9,30.36,ESE,105,9.0,11.0,-999,-99.99,,,-99.99,,2013-02-26 16:22:00,
2013-02-26 08:32:00,37.0,-99.9,30.36,ESE,110,8.0,9.0,-999,-99.99,,,-99.99,,2013-02-26 16:32:00,
2013-02-26 08:42:00,38.0,-99.9,30.36,ESE,115,7.0,9.0,-999,-99.99,,,-99.99,,2013-02-26 16:42:00,
2013-02-26 08:52:00,37.0,-99.9,30.36,ESE,103,9.0,10.0,-999,-99.99,,,-99.99,,2013-02-26 16:52:00,
2013-02-26 09:01:00,38.0,-99.9,30.36,ESE,114,8.0,10.0,-999,-99.99,,,-99.99,,2013-02-26 17:01:00,
2013-02-26 09:11:00,38.0,-99.9,30.37,ESE,116,8.0,9.0,-999,-99.99,,,-99.99,,2013-02-26 17:11:00,
2013-02-26 09:22:00,38.0,-99.9,30.37,ESE,110,8.0,9.0,-999,-99.99,,,-99.99,,2013-02-26 17:22:00,
2013-02-26 09:32:00,38.0,-99.9,30.36,ESE,115,9.0,12.0,-999,-99.99,,,-99.99,,2013-02-26 17:32:00,
2013-02-26 09:42:00,39.0,-99.9,30.35,ESE,121,9.0,11.0,-999,-99.99,,,-99.99,,2013-02-26 17:42:00,
2013-02-26 09:52:00,39.0,-99.9,30.35,ESE,117,10.0,11.0,-999,-99.99,,,-99.99,,2013-02-26 17:52:00,
2013-02-26 10:02:00,40.0,-99.9,30.35,ESE,114,10.0,11.0,-999,-99.99,,,-99.99,,2013-02-26 18:02:00,
2013-02-26 10:12:00,40.0,-99.9,30.35,ESE,118,9.0,11.0,-999,-99.99,,,-99.99,,2013-02-26 18:12:00,
2013-02-26 10:21:00,40.0,-99.9,30.35,ESE,119,8.0,9.0,-999,-99.99,,,-99.99,,2013-02-26 18:21:00,
2013-02-26 10:32:00,41.0,-99.9,30.35,SE,129,5.0,8.0,-999,-99.99,,,-99.99,,2013-02-26 18:32:00,
2013-02-26 10:42:00,42.0,-99.9,30.35,SE,128,4.0,6.0,-999,-99.99,,,-99.99,,2013-02-26 18:42:00,
2013-02-26 10:53:00,42.0,-99.9,30.35,SE,136,5.0,6.0,-999,-99.99,,,-99.99,,2013-02-26 18:53:00,
2013-02-26 11:02:00,43.0,-99.9,30.34,SE,129,6.0,7.0,-999,-99.99,,,-99.99,,2013-02-26 19:02:00,
2013-02-26 11:11:00,44.0,-99.9,30.34,SE,125,5.0,6.0,-999,-99.99,,,-99.99,,2013-02-26 19:11:00,
2013-02-26 11:22:00,44.0,-99.9,30.34,East,100,6.0,7.0,-999,-99.99,,,-99.99,,2013-02-26 19:22:00,
2013-02-26 11:32:00,45.0,-99.9,30.34,ESE,113,6.0,7.0,-999,-99.99,,,-99.99,,2013-02-26 19:32:00,
2013-02-26 11:42:00,45.0,-99.9,30.34,ESE,106,5.0,6.0,-999,-99.99,,,-99.99,,2013-02-26 19:42:00,
2013-02-26 11:52:00,46.0,-99.9,30.33,ESE,106,6.0,8.0,-999,-99.99,,,-99.99,,2013-02-26 19:52:00,
2013-02-26 12:01:00,46.0,-99.9,30.33,ESE,117,7.0,10.0,-999,-99.99,,,-99.99,,2013-02-26 20:01:00,
2013-02-26 12:11:00,46.0,-99.9,30.33,ESE,107,4.0,8.0,-999,-99.99,,,-99.99,,2013-02-26 20:11:00,
2013-02-26 12:22:00,47.0,-99.9,30.33,SE,138,5.0,8.0,-999,-99.99,,,-99.99,,2013-02-26 20:22:00,
2013-02-26 12:32:00,47.0,-99.9,30.32,SSE,147,6.0,8.0,-999,-99.99,,,-99.99,,2013-02-26 20:32:00,
2013-02-26 12:42:00,47.0,-99.9,30.31,SE,132,5.0,8.0,-999,-99.99,,,-99.99,,2013-02-26 20:42:00,
2013-02-26 12:52:00,48.0,-99.9,30.31,SE,142,8.0,11.0,-999,-99.99,,,-99.99,,2013-02-26 20:52:00,
2013-02-26 13:01:00,48.0,-99.9,30.30,SE,138,7.0,9.0,-999,-99.99,,,-99.99,,2013-02-26 21:01:00,
2013-02-26 13:11:00,48.0,-99.9,30.30,SE,143,6.0,9.0,-999,-99.99,,,-99.99,,2013-02-26 21:11:00,
2013-02-26 13:21:00,48.0,-99.9,30.29,SE,132,5.0,8.0,-999,-99.99,,,-99.99,,2013-02-26 21:21:00,
2013-02-26 13:31:00,49.0,-99.9,30.29,ESE,118,3.0,6.0,-999,-99.99,,,-99.99,,2013-02-26 21:31:00,
2013-02-26 13:41:00,49.0,-99.9,30.29,WNW,300,3.0,4.0,-999,-99.99,,,-99.99,,2013-02-26 21:41:00,
2013-02-26 13:51:00,47.0,-99.9,30.29,WSW,257,8.0,11.0,-999,-99.99,,,-99.99,,2013-02-26 21:51:00,
2013-02-26 14:01:00,47.0,-99.9,30.29,West,271,6.0,11.0,-999,-99.99,,,-99.99,,2013-02-26 22:01:00,
2013-02-26 14:11:00,47.0,-99.9,30.28,WSW,255,7.0,10.0,-999,-99.99,,,-99.99,,2013-02-26 22:11:00,
2013-02-26 14:21:00,47.0,-99.9,30.28,West,259,8.0,10.0,-999,-99.99,,,-99.99,,2013-02-26 22:21:00,
2013-02-26 14:32:00,47.0,-99.9,30.28,WSW,250,7.0,12.0,-999,-99.99,,,-99.99,,2013-02-26 22:32:00,
2013-02-26 14:42:00,47.0,-99.9,30.28,WSW,237,9.0,12.0,-999,-99.99,,,-99.99,,2013-02-26 22:42:00,
2013-02-26 14:52:00,47.0,-99.9,30.28,WSW,241,11.0,14.0,-999,-99.99,,,-99.99,,2013-02-26 22:52:00,
2013-02-26 15:01:00,47.0,-99.9,30.29,SW,229,10.0,15.0,-999,-99.99,,,-99.99,,2013-02-26 23:01:00,
2013-02-26 15:11:00,47.0,-99.9,30.28,SW,220,8.0,15.0,-999,-99.99,,,-99.99,,2013-02-26 23:11:00,
2013-02-26 15:21:00,46.0,-99.9,30.27,SSW,199,9.0,13.0,-999,-99.99,,,-99.99,,2013-02-26 23:21:00,
2013-02-26 15:32:00,47.0,-99.9,30.28,SSW,209,7.0,12.0,-999,-99.99,,,-99.99,,2013-02-26 23:32:00,
2013-02-26 15:42:00,46.0,-99.9,30.29,WSW,239,7.0,14.0,-999,-99.99,,,-99.99,,2013-02-26 23:42:00,
2013-02-26 15:52:00,46.0,-99.9,30.29,SW,236,9.0,15.0,-999,-99.99,,,-99.99,,2013-02-26 23:52:00,
2013-02-26 16:02:00,46.0,-99.9,30.30,WSW,241,10.0,13.0,-999,-99.99,,,-99.99,,2013-02-27 00:02:00,
2013-02-26 16:11:00,46.0,-99.9,30.30,WSW,238,5.0,11.0,-999,-99.99,,,-99.99,,2013-02-27 00:11:00,
2013-02-26 16:22:00,46.0,-99.9,30.30,WSW,244,7.0,10.0,-999,-99.99,,,-99.99,,2013-02-27 00:22:00,
2013-02-26 16:32:00,46.0,-99.9,30.29,West,269,3.0,9.0,-999,-99.99,,,-99.99,,2013-02-27 00:32:00,
2013-02-26 16:42:00,46.0,-99.9,30.29,West,272,5.0,7.0,-999,-99.99,,,-99.99,,2013-02-27 00:42:00,
2013-02-26 16:52:00,47.0,-99.9,30.29,SW,218,3.0,6.0,-999,-99.99,,,-99.99,,2013-02-27 00:52:00,
2013-02-26 17:01:00,47.0,-99.9,30.29,SW,228,6.0,9.0,-999,-99.99,,,-99.99,,2013-02-27 01:01:00,
2013-02-26 17:11:00,46.0,-99.9,30.29,SSW,203,6.0,10.0,-999,-99.99,,,-99.99,,2013-02-27 01:11:00,
2013-02-26 17:22:00,46.0,-99.9,30.29,SSW,213,5.0,8.0,-999,-99.99,,,-99.99,,2013-02-27 01:22:00,
2013-02-26 17:32:00,46.0,-99.9,30.29,South,190,6.0,9.0,-999,-99.99,,,-99.99,,2013-02-27 01:32:00,
2013-02-26 17:42:00,46.0,-99.9,30.29,South,182,5.0,9.0,-999,-99.99,,,-99.99,,2013-02-27 01:42:00,
2013-02-26 17:52:00,46.0,-99.9,30.29,SSE,167,6.0,9.0,-999,-99.99,,,-99.99,,2013-02-27 01:52:00,
2013-02-26 18:02:00,46.0,-99.9,30.27,ESE,117,6.0,8.0,-999,-99.99,,,-99.99,,2013-02-27 02:02:00,
2013-02-26 18:16:00,46.0,-99.9,30.26,ESE,115,8.0,10.0,-999,-99.99,,,-99.99,,2013-02-27 02:16:00,
2013-02-26 18:24:00,46.0,-99.9,30.25,ESE,104,12.0,13.0,-999,-99.99,,,-99.99,,2013-02-27 02:24:00,
2013-02-26 18:32:00,46.0,-99.9,30.25,East,94,8.0,11.0,-999,-99.99,,,-99.99,,2013-02-27 02:32:00,
2013-02-26 18:42:00,45.0,-99.9,30.26,ESE,114,10.0,12.0,-999,-99.99,,,-99.99,,2013-02-27 02:42:00,
2013-02-26 18:52:00,45.0,-99.9,30.26,ESE,123,10.0,11.0,-999,-99.99,,,-99.99,,2013-02-27 02:52:00,
2013-02-26 19:02:00,45.0,-99.9,30.26,ESE,110,9.0,10.0,-999,-99.99,,,-99.99,,2013-02-27 03:02:00,
2013-02-26 19:12:00,45.0,-99.9,30.26,SE,133,7.0,8.0,-999,-99.99,,,-99.99,,2013-02-27 03:12:00,
2013-02-26 19:22:00,44.0,-99.9,30.27,SSE,156,5.0,9.0,-999,-99.99,,,-99.99,,2013-02-27 03:22:00,
2013-02-26 19:32:00,44.0,-99.9,30.27,SSW,193,3.0,7.0,-999,-99.99,,,-99.99,,2013-02-27 03:32:00,
2013-02-26 19:42:00,44.0,-99.9,30.26,SSE,150,5.0,6.0,-999,-99.99,,,-99.99,,2013-02-27 03:42:00,
2013-02-26 19:52:00,44.0,-99.9,30.27,SE,126,8.0,9.0,-999,-99.99,,,-99.99,,2013-02-27 03:52:00,
2013-02-26 20:02:00,44.0,-99.9,30.27,SE,127,6.0,7.0,-999,-99.99,,,-99.99,,2013-02-27 04:02:00,
2013-02-26 20:12:00,44.0,-99.9,30.27,SE,137,4.0,7.0,-999,-99.99,,,-99.99,,2013-02-27 04:12:00,
2013-02-26 20:22:00,44.0,-99.9,30.27,ESE,123,4.0,5.0,-999,-99.99,,,-99.99,,2013-02-27 04:22:00,
2013-02-26 20:32:00,44.0,-99.9,30.27,ESE,123,4.0,7.0,-999,-99.99,,,-99.99,,2013-02-27 04:32:00,
2013-02-26 20:42:00,44.0,-99.9,30.28,SE,125,4.0,6.0,-999,-99.99,,,-99.99,,2013-02-27 04:42:00,
2013-02-26 20:52:00,44.0,-99.9,30.28,SE,135,4.0,6.0,-999,-99.99,,,-99.99,,2013-02-27 04:52:00,
2013-02-26 21:02:00,44.0,-99.9,30.28,SE,143,4.0,4.0,-999,-99.99,,,-99.99,,2013-02-27 05:02:00,
2013-02-26 21:12:00,44.0,-99.9,30.28,SE,140,3.0,4.0,-999,-99.99,,,-99.99,,2013-02-27 05:12:00,
2013-02-26 21:22:00,43.0,-99.9,30.28,ESE,118,5.0,5.0,-999,-99.99,,,-99.99,,2013-02-27 05:22:00,
2013-02-26 21:32:00,43.0,-99.9,30.28,SE,125,3.0,4.0,-999,-99.99,,,-99.99,,2013-02-27 05:32:00,
2013-02-26 21:42:00,43.0,-99.9,30.29,SE,125,3.0,4.0,-999,-99.99,,,-99.99,,2013-02-27 05:42:00,
2013-02-26 21:52:00,43.0,-99.9,30.28,ESE,110,4.0,4.0,-999,-99.99,,,-99.99,,2013-02-27 05:52:00,
2013-02-26 22:02:00,43.0,-99.9,30.29,ESE,117,4.0,5.0,-999,-99.99,,,-99.99,,2013-02-27 06:02:00,
2013-02-26 22:11:00,43.0,-99.9,30.29,SE,142,3.0,5.0,-999,-99.99,,,-99.99,,2013-02-27 06:11:00,
2013-02-26 22:22:00,43.0,-99.9,30.29,SE,133,3.0,4.0,-999,-99.99,,,-99.99,,2013-02-27 06:22:00,
2013-02-26 22:33:00,44.0,-99.9,30.29,SE,126,3.0,4.0,-999,-99.99,,,-99.99,,2013-02-27 06:33:00,
2013-02-26 22:42:00,44.0,-99.9,30.29,ESE,121,4.0,5.0,-999,-99.99,,,-99.99,,2013-02-27 06:42:00,
2013-02-26 22:52:00,44.0,-99.9,30.29,SE,125,4.0,6.0,-999,-99.99,,,-99.99,,2013-02-27 06:52:00,
2013-02-26 23:01:00,44.0,-99.9,30.28,ESE,110,5.0,6.0,-999,-99.99,,,-99.99,,2013-02-27 07:01:00,
2013-02-26 23:12:00,44.0,-99.9,30.28,ESE,110,4.0,7.0,-999,-99.99,,,-99.99,,2013-02-27 07:12:00,
2013-02-26 23:22:00,44.0,-99.9,30.28,ESE,113,4.0,5.0,-999,-99.99,,,-99.99,,2013-02-27 07:22:00,
2013-02-26 23:32:00,44.0,-99.9,30.28,ESE,104,5.0,6.0,-999,-99.99,,,-99.99,,2013-02-27 07:32:00,
2013-02-26 23:42:00,44.0,-99.9,30.28,ESE,121,4.0,7.0,-999,-99.99,,,-99.99,,2013-02-27 07:42:00,
2013-02-26 23:52:00,45.0,-99.9,30.29,SE,124,4.0,6.0,-999,-99.99,,,-99.99,,2013-02-27 07:52:00,